Location: Helsinki
(60.1699°N, 24.9384°E)
Time: 20:54:37
(UTC+02:00)

Transit 4A - Pass Details

Date: 04 November 2020
Orbit: 862 x 982 km, 66.8° (Epoch: 30 November)

Event Time Altitude Azimuth Distance (km) Brightness Sun altitude
Rises 20:14:15 0° 302° (WNW) 3,691 12.2 -29.5°
Reaches altitude 10° 20:16:51 10° 305° (NW) 2,746 11.2 -29.8°
Enters shadow 20:23:00 66° 12° (NNE) 1,069 8.1 -30.5°
Maximum altitude 20:23:17 67° 28° (NNE) 1,063 - -30.5°
Drops below altitude 10° 20:29:39 10° 112° (ESE) 2,719 - -31.3°
Sets 20:32:13 0° 115° (ESE) 3,652 - -31.6°
